Date String (YYYY-MM-DD hh:mm:ss) UTC,Instrument flags,Ambient pressure (hPa),Sample flow (lpm),Bypass flow (lpm),Sample temperature (°C),Ambient temperature (°C),ASC tube jacket temperature (°C),LED temperature (°C),Box temperature (°C),Sample RH (%),Span deviation,Mass concentration (μg/m³),Mass concentration (μg/m³),Mass concentration (μg/m³)
DateTimeUTC,F1_M11,P_M11,Q1_M11,Q2_M11,T1_M11,T2_M11,T3_M11,T4_M11,T5_M11,U1_M11,ZSPAN_M11,X0_M11,X2_M11,X1_M11
2023-05-12 08:00:00,,0826.6,5.00,0.00,26.4,24.4,00.0,35.0,28.0,30.4,0000.0,0002.95,0001.16,0000.69
2023-05-12 08:01:00,,0826.6,5.00,0.00,26.4,24.4,00.0,35.0,28.0,30.4,0000.0,0003.02,0001.17,0000.69
2023-05-12 08:02:00,,0826.6,5.00,0.00,26.4,24.4,00.0,35.0,28.0,30.4,0000.0,0003.10,0001.20,0000.70
2023-05-12 08:03:00,,0826.6,5.00,0.00,26.4,24.4,00.0,35.0,28.0,30.5,0000.0,0002.79,0001.18,0000.70
2023-05-12 08:04:00,,0826.6,5.01,0.00,26.4,24.4,00.0,35.0,28.0,30.5,0000.0,0002.50,0001.20,0000.71
2023-05-12 08:05:00,,0826.7,5.00,0.00,26.4,24.3,00.0,34.9,28.0,30.6,0000.0,0002.59,0001.22,0000.73
2023-05-12 08:06:00,,0826.7,5.00,0.00,26.3,24.3,00.0,34.9,28.0,30.7,0000.0,0002.62,0001.24,0000.75
2023-05-12 08:07:00,,0826.6,5.00,0.00,26.3,24.3,00.0,34.9,27.9,30.7,0000.0,0002.67,0001.27,0000.77
2023-05-12 08:08:00,,0826.6,5.00,0.00,26.3,24.3,00.0,34.9,27.9,30.8,0000.0,0002.57,0001.30,0000.80
2023-05-12 08:09:00,,0826.6,5.00,0.00,26.3,24.3,00.0,34.9,27.9,30.9,0000.0,0002.43,0001.32,0000.82
2023-05-12 08:10:00,,0826.6,4.99,0.00,26.3,24.2,00.0,34.9,27.9,30.9,0000.0,0002.42,0001.33,0000.84
2023-05-12 08:11:00,,0826.8,4.99,0.00,26.2,24.2,00.0,34.8,27.8,30.9,0000.0,0002.41,0001.33,0000.86
2023-05-12 08:12:00,,0826.8,5.00,0.00,26.2,24.2,00.0,34.8,27.8,30.9,0000.0,0002.36,0001.31,0000.86
2023-05-12 08:13:00,,0826.6,5.00,0.00,26.2,24.2,00.0,34.8,27.8,31.0,0000.0,0002.42,0001.31,0000.85
2023-05-12 08:14:00,,0826.6,5.01,0.00,26.2,24.2,00.0,34.8,27.8,31.0,0000.0,0002.45,0001.31,0000.85
2023-05-12 08:15:00,,0826.7,5.00,0.00,26.2,24.2,00.0,34.8,27.7,31.0,0000.0,0002.37,0001.28,0000.83
2023-05-12 08:16:00,,0826.8,4.99,0.00,26.1,24.1,00.0,34.7,27.7,31.0,0000.0,0002.32,0001.25,0000.80
2023-05-12 08:17:00,,0826.7,5.00,0.00,26.1,24.1,00.0,34.7,27.7,31.0,0000.0,0002.23,0001.21,0000.77
2023-05-12 08:18:00,,0826.6,5.01,0.00,26.1,24.1,00.0,34.7,27.7,31.0,0000.0,0002.12,0001.15,0000.73
2023-05-12 08:19:00,,0826.6,5.01,0.00,26.1,24.1,00.0,34.7,27.7,31.0,0000.0,0002.48,0001.11,0000.68
2023-05-12 08:20:00,,0826.6,5.01,0.00,26.0,24.1,00.0,34.7,27.6,30.9,0000.0,0002.92,0001.10,0000.63
2023-05-12 08:21:00,,0826.6,4.98,0.00,26.0,24.0,00.0,34.6,27.6,30.9,0000.0,0002.89,0001.06,0000.58
2023-05-12 08:22:00,,0826.6,4.99,0.00,26.0,24.0,00.0,34.6,27.6,30.9,0000.0,0003.19,0001.00,0000.54
2023-05-12 08:23:00,,0826.6,5.00,0.00,26.0,24.0,00.0,34.6,27.6,30.9,0000.0,0003.79,0000.96,0000.51
2023-05-12 08:24:00,,0826.6,5.01,0.00,26.0,24.0,00.0,34.6,27.6,31.0,0000.0,0003.62,0000.91,0000.48
2023-05-12 08:25:00,,0826.6,5.00,0.00,26.0,24.0,00.0,34.6,27.6,31.0,0000.0,0003.46,0000.84,0000.46
2023-05-12 08:26:00,,0826.6,5.00,0.00,25.9,24.0,00.0,34.6,27.5,30.9,0000.0,0003.43,0000.82,0000.44
2023-05-12 08:27:00,,0826.6,5.00,0.00,25.9,24.0,00.0,34.5,27.5,31.0,0000.0,0003.39,0000.80,0000.42
2023-05-12 08:28:00,,0826.6,5.00,0.00,25.9,23.9,00.0,34.5,27.5,31.0,0000.0,0003.36,0000.78,0000.41
2023-05-12 08:29:00,,0826.6,4.98,0.00,25.9,23.9,00.0,34.5,27.5,31.0,0000.0,0003.33,0000.75,0000.39
2023-05-12 08:30:00,,0826.6,5.00,0.00,25.8,23.8,00.0,34.5,27.4,31.1,0000.0,0002.92,0000.71,0000.38
2023-05-12 08:31:00,,0826.6,5.00,0.00,25.8,23.7,00.0,34.5,27.4,31.2,0000.0,0002.32,0000.66,0000.38
2023-05-12 08:32:00,,0826.6,5.00,0.00,25.8,23.7,00.0,34.4,27.4,31.3,0000.0,0002.36,0000.70,0000.41
2023-05-12 08:33:00,,0826.6,5.00,0.00,25.7,23.7,00.0,34.4,27.3,31.4,0000.0,0002.14,0000.74,0000.44
2023-05-12 08:34:00,,0826.7,5.01,0.00,25.7,23.7,00.0,34.4,27.3,31.5,0000.0,0001.29,0000.75,0000.47
2023-05-12 08:35:00,,0826.8,5.00,0.00,25.7,23.7,00.0,34.4,27.3,31.5,0000.0,0001.37,0000.77,0000.48
2023-05-12 08:36:00,,0826.8,5.00,0.00,25.7,23.7,00.0,34.3,27.3,31.5,0000.0,0001.56,0000.81,0000.50
2023-05-12 08:37:00,,0826.8,4.99,0.00,25.7,23.7,00.0,34.3,27.3,31.6,0000.0,0001.59,0000.82,0000.51
2023-05-12 08:38:00,,0826.9,4.99,0.00,25.7,23.7,00.0,34.3,27.3,31.6,0000.0,0001.58,0000.82,0000.51
2023-05-12 08:39:00,,0826.9,5.00,0.00,25.7,23.7,00.0,34.3,27.3,31.6,0000.0,0001.53,0000.81,0000.51
2023-05-12 08:40:00,,0826.9,5.00,0.00,25.7,23.7,00.0,34.3,27.3,31.5,0000.0,0001.52,0000.80,0000.51
2023-05-12 08:41:00,,0826.8,5.00,0.00,25.6,23.7,00.0,34.3,27.3,31.5,0000.0,0001.58,0000.78,0000.50
2023-05-12 08:42:00,,0826.9,5.01,0.00,25.6,23.7,00.0,34.2,27.2,31.6,0000.0,0001.69,0000.79,0000.49
2023-05-12 08:43:00,,0826.9,5.01,0.00,25.6,23.7,00.0,34.2,27.2,31.6,0000.0,0001.59,0000.73,0000.46
2023-05-12 08:44:00,,0826.9,5.01,0.00,25.6,23.7,00.0,34.2,27.2,31.6,0000.0,0001.63,0000.71,0000.42
2023-05-12 08:45:00,,0826.8,5.00,0.00,25.6,23.7,00.0,34.2,27.2,31.7,0000.0,0001.61,0000.68,0000.39
2023-05-12 08:46:00,,0826.9,5.00,0.00,25.6,23.6,00.0,34.2,27.2,31.7,0000.0,0001.71,0000.68,0000.37
2023-05-12 08:47:00,,0826.8,5.00,0.00,25.5,23.6,00.0,34.2,27.1,31.7,0000.0,0001.59,0000.67,0000.36
2023-05-12 08:48:00,,0826.8,5.00,0.00,25.5,23.6,00.0,34.1,27.1,31.7,0000.0,0001.64,0000.69,0000.35
2023-05-12 08:49:00,,0826.7,5.00,0.00,25.5,23.5,00.0,34.1,27.1,31.8,0000.0,0001.64,0000.69,0000.35
2023-05-12 08:50:00,,0826.8,5.00,0.00,25.5,23.4,00.0,34.1,27.0,31.9,0000.0,0001.58,0000.66,0000.34
2023-05-12 08:51:00,,0826.8,5.00,0.00,25.4,23.3,00.0,34.1,27.0,32.0,0000.0,0001.56,0000.65,0000.34
2023-05-12 08:52:00,,0826.9,5.02,0.00,25.4,23.2,00.0,34.1,26.9,32.1,0000.0,0001.51,0000.67,0000.35
2023-05-12 08:53:00,,0826.9,5.01,0.00,25.3,23.2,00.0,34.0,26.9,32.2,0000.0,0001.43,0000.68,0000.35
2023-05-12 08:54:00,,0826.9,5.00,0.00,25.3,23.2,00.0,34.0,26.9,32.3,0000.0,0001.40,0000.68,0000.35
2023-05-12 08:55:00,,0826.9,5.00,0.00,25.3,23.1,00.0,34.0,26.8,32.4,0000.0,0001.37,0000.66,0000.36
2023-05-12 08:56:00,,0826.9,5.00,0.00,25.2,23.0,00.0,34.0,26.8,32.4,0000.0,0001.37,0000.66,0000.36
2023-05-12 08:57:00,,0826.9,5.00,0.00,25.2,23.0,00.0,33.9,26.8,32.5,0000.0,0001.25,0000.64,0000.36
2023-05-12 08:58:00,,0826.9,5.00,0.00,25.2,23.0,00.0,33.9,26.8,32.5,0000.0,0001.20,0000.62,0000.35
2023-05-12 08:59:00,,0826.8,5.00,0.00,25.2,23.0,00.0,33.9,26.7,32.5,0000.0,0001.08,0000.57,0000.34
